Change the Weather History Date:

Saturday, December 21, 2013

  Actual Average Record
Temperature  
Mean Temperature 49 °F -  
Max Temperature 54 °F 61 °F 73 °F (2005)
Min Temperature 44 °F 40 °F 34 °F (2006)
Degree Days  
Heating Degree Days 16    
Moisture  
Dew Point 42 °F    
Average Humidity 81    
Maximum Humidity 97    
Minimum Humidity 45    
Precipitation  
Precipitation 0.00 in - - ()
Sea Level Pressure  
Sea Level Pressure 29.85 in    
Wind  
Wind Speed 4 mph (SW)    
Max Wind Speed 9 mph    
Max Gust Speed -    
Visibility 10 miles    
Events      
Averages and records for this station are not official NWS values.
T = Trace of Precipitation, MM = Missing Value Source: NWS Daily Summary

Daily Weather History Graph

Daily Weather History Graph

Search for Another Location

Airport or City:

Trip Planner

Search our weather history database for the weather conditions in past years. The results will help you decide how hot, cold, wet, or windy it might be!

Date:

Astronomy

Dec. 21, 2013 Rise Set
Actual Time 7:29 AM MST 5:24 PM MST
Civil Twilight 7:01 AM MST 5:51 PM MST
Nautical Twilight 6:30 AM MST 6:22 PM MST
Astronomical Twilight 5:59 AM MST 6:53 PM MST
Moon 9:33 PM MST (12/21) 10:06 AM MST (12/21)
Length of Visible Light 10h 50m
Length of Day
9h 54m
Waning Gibbous, 84% of the Moon is Illuminated
Dec 21
Waning Gibbous
Dec 25
Last Quarter
Jan 1
New
Jan 7
First Quarter
Jan 15
Full

Hourly Weather History & Observations

Time (MST) Temp. Windchill Dew Point Humidity Pressure Visibility Wind Dir Wind Speed Gust Speed Precip Events Conditions
12:53 AM 48.0 °F - 46.9 °F 96% 29.78 in 8.0 mi West 6.9 mph - N/A   Overcast
1:18 AM 48.2 °F - 46.4 °F 93% 29.79 in 8.0 mi WSW 3.5 mph - N/A   Overcast
1:53 AM 48.9 °F - 46.9 °F 93% 29.77 in 10.0 mi Calm Calm - N/A   Overcast
2:37 AM 48.2 °F - 46.4 °F 93% 29.79 in 10.0 mi SW 5.8 mph - N/A   Overcast
2:53 AM 48.0 °F - 46.9 °F 96% 29.77 in 10.0 mi SSW 6.9 mph - N/A   Overcast
3:37 AM 48.2 °F - 46.4 °F 93% 29.79 in 10.0 mi SW 3.5 mph - N/A   Mostly Cloudy
3:45 AM 48.2 °F - 44.6 °F 87% 29.79 in 10.0 mi SW 3.5 mph - N/A   Scattered Clouds
3:53 AM 46.9 °F - 45.0 °F 93% 29.77 in 10.0 mi SW 4.6 mph - N/A   Scattered Clouds
4:27 AM 46.4 °F 41.9 °F 44.6 °F 93% 29.79 in 10.0 mi SW 9.2 mph - N/A   Mostly Cloudy
4:53 AM 46.9 °F - 46.0 °F 97% 29.77 in 10.0 mi SW 3.5 mph - N/A   Mostly Cloudy
5:10 AM 46.4 °F 42.9 °F 44.6 °F 93% 29.80 in 10.0 mi SW 6.9 mph - N/A   Overcast
5:19 AM 46.4 °F 41.9 °F 44.6 °F 93% 29.80 in 10.0 mi SW 9.2 mph - N/A   Overcast
5:53 AM 46.9 °F - 44.1 °F 90% 29.78 in 10.0 mi WSW 6.9 mph - N/A   Overcast
6:11 AM 46.4 °F 42.4 °F 44.6 °F 93% 29.81 in 10.0 mi SW 8.1 mph - N/A   Scattered Clouds
6:53 AM 45.0 °F 42.6 °F 43.0 °F 93% 29.81 in 10.0 mi SSW 4.6 mph - N/A   Clear
7:53 AM 44.1 °F - 42.1 °F 93% 29.83 in 10.0 mi Calm Calm - N/A   Clear
8:03 AM 44.6 °F - 42.8 °F 93% 29.85 in 10.0 mi Calm Calm - N/A   Partly Cloudy
8:53 AM 45.0 °F - 42.1 °F 90% 29.84 in 10.0 mi Calm Calm - N/A   Partly Cloudy
9:53 AM 46.0 °F 43.9 °F 42.1 °F 86% 29.88 in 10.0 mi WSW 4.6 mph - N/A   Mostly Cloudy
10:53 AM 46.9 °F - 41.0 °F 80% 29.89 in 10.0 mi SSW 3.5 mph - N/A   Overcast
11:53 AM 48.9 °F - 39.9 °F 71% 29.88 in 10.0 mi Calm Calm - N/A   Mostly Cloudy
12:53 PM 50.0 °F - 39.9 °F 68% 29.86 in 10.0 mi Variable 4.6 mph - N/A   Mostly Cloudy
1:53 PM 53.1 °F - 37.0 °F 55% 29.84 in 10.0 mi South 3.5 mph - N/A   Mostly Cloudy
2:53 PM 54.0 °F - 33.1 °F 45% 29.84 in 10.0 mi West 5.8 mph - N/A   Clear
3:53 PM 54.0 °F - 34.0 °F 47% 29.85 in 10.0 mi SSW 5.8 mph - N/A   Clear
4:53 PM 53.1 °F - 35.1 °F 50% 29.86 in 10.0 mi SW 5.8 mph - N/A   Clear
5:53 PM 52.0 °F - 37.9 °F 59% 29.89 in 10.0 mi Calm Calm - N/A   Clear
6:53 PM 50.0 °F - 39.0 °F 66% 29.92 in 10.0 mi Calm Calm - N/A   Clear
7:53 PM 48.0 °F - 39.0 °F 71% 29.94 in 10.0 mi Calm Calm - N/A   Clear
8:53 PM 45.0 °F - 39.0 °F 80% 29.97 in 10.0 mi Calm Calm - N/A   Clear
9:53 PM 45.0 °F - 37.9 °F 76% 29.99 in 10.0 mi Calm Calm - N/A   Clear
10:53 PM 44.1 °F 41.5 °F 37.0 °F 76% 30.01 in 10.0 mi East 4.6 mph - N/A   Clear
11:53 PM 44.1 °F - 37.0 °F 76% 30.02 in 10.0 mi Calm Calm - N/A   Clear